[[{"header":{"parameterUnit":"m.s-1","parameterCategory":1,"la1":30.2992,"la2":30.254,"lo1":-89.0895,"lo2":-89.0443,"dy":0.0025,"dx":0.0025,"nx":19,"ny":19,"refTime":"2026-03-20T03:00:00:Z","depth":0,"parameterNumber":2,"parameterNumberName":"U-component_of_WINDS"},"data":[0,0,0,3.7634,3.7636,3.774,3.7741,3.7903,3.7904,0,0,0,0,0,0,0,0,0,0,0,3.7621,3.7623,3.7633,3.7637,3.774,3.7741,3.7902,3.7904,0,0,0,0,0,0,0,0,0,0,0,3.762,3.7622,3.7624,3.7637,3.774,3.7741,3.7902,3.7813,0,0,0,0,0,0,0,0,0,0,3.7707,3.7713,3.7622,3.7625,3.7638,3.774,3.7741,3.7808,3.7819,3.7868,0,3.7917,0,3.7913,3.7917,3.7918,0,0,0,3.7623,3.7705,3.7716,3.7625,3.7639,3.774,3.769,3.7814,3.7825,3.7882,3.7919,3.7924,3.7916,3.7918,3.7919,3.8247,3.8249,0,0,3.7617,3.765,3.7708,3.7725,3.7711,3.7687,3.7693,3.782,3.7863,3.792,3.7928,3.7919,3.7919,3.7921,3.8245,3.8247,0,0,0,3.761,3.7647,3.7654,3.7719,3.7736,3.769,3.7698,3.7857,3.7857,3.7929,3.7921,3.7921,3.7923,3.8242,3.8245,3.8382,0,0,0,3.7606,3.7642,3.7652,3.7673,3.7734,3.7798,3.7733,3.7848,3.7862,3.792,3.7921,3.7925,3.824,3.8244,3.8373,3.8441,0,0,0,3.7608,3.7642,3.7663,3.7675,3.772,3.7795,3.7802,3.785,3.7857,3.7918,3.7925,3.8238,3.8243,3.8365,3.8428,3.8535,0,0,0,3.762,3.7785,3.7666,3.7847,3.772,3.7879,3.7801,3.7918,3.7986,3.7922,3.824,3.8245,3.8362,3.842,3.8526,3.8629,3.8676,0,0,3.7846,3.7814,3.7917,3.7813,3.8002,3.7861,3.8069,3.8102,3.8079,3.8192,3.8199,3.8376,3.8427,3.8533,3.8926,3.8963,0,0,0,3.8,3.8075,3.8117,3.8183,3.8211,3.8239,3.8236,3.8248,3.8342,3.8143,3.8443,3.8472,3.8533,3.8581,3.8612,3.8661,3.8269,3.8268,3.8268,3.8367,3.8327,3.8494,3.8466,3.853,3.8523,3.8571,3.8585,3.8528,3.8599,3.8632,3.8876,3.8933,3.8956,3.9008,3.8685,3.8685,3.8686,3.8686,3.8694,3.8792,3.8708,3.884,3.8796,3.8907,3.8906,3.8861,3.8956,3.8849,3.89,3.8785,3.8998,3.9041,3.8696,3.8694,3.8693,3.8692,3.8691,3.8929,3.8968,3.8978,3.9066,3.9138,3.9103,3.9198,3.9155,3.9115,3.9166,3.9195,3.9192,3.9183,3.9183,3.9184,3.9185,3.9185,3.9186,3.9186,3.9168,3.9174,3.9259,3.93,3.9334,3.9374,3.9367,3.94,3.9425,3.9386,3.9385,3.9319,3.9027,3.8954,3.9199,3.9197,3.9195,3.9194,3.9193,3.9511,3.9426,3.9557,3.9592,3.9634,3.9707,3.965,3.9719,3.974,3.9787,3.9709,3.9501,3.9465,3.9439,3.9378,3.9719,3.9719,3.9719,3.9719,3.9708,3.9685,3.9807,3.9864,3.9916,3.9876,4.0024,4.0019,4.0,4.001,3.9955,3.987,3.9846,3.9824,3.979,3.9732,4.0155,4.0156,4.0156,3.9916,3.9895,4.0029,4.0009,4.0038,4.0064,4.02,4.0268,4.023,4.0173,4.0016,3.9998,3.9861,3.9819,3.9759,3.9707,3.96,0,0]},{"header":{"parameterUnit":"m.s-1","parameterCategory":1,"la1":30.2992,"la2":30.254,"lo1":-89.0895,"lo2":-89.0443,"dy":0.0025,"dx":0.0025,"nx":19,"ny":19,"refTime":"2026-03-20T03:00:00:Z","depth":0,"parameterNumber":3,"parameterNumberName":"V-component_of_WINDS"},"data":[0,0,0,5.9817,5.9822,6.005,6.0051,6.0331,6.0333,0,0,0,0,0,0,0,0,0,0,0,5.9747,5.9749,5.9816,5.9822,6.005,6.0051,6.033,6.0333,0,0,0,0,0,0,0,0,0,0,0,5.9746,5.9748,5.9751,5.9823,6.005,6.0051,6.033,6.016,0,0,0,0,0,0,0,0,0,0,5.994,5.9875,5.9748,5.9751,5.9824,6.005,6.0051,6.0153,6.0171,6.0224,0,6.0274,0,6.0308,6.0352,6.0352,0,0,0,5.9822,5.986,5.9924,5.9751,5.9826,6.0049,5.9947,6.0163,6.0184,6.0248,6.0278,6.0289,6.0313,6.0353,6.0355,6.0666,6.0667,0,0,5.981,5.9786,5.9909,5.9937,5.9907,5.994,5.9954,6.0176,6.0205,6.0279,6.0296,6.0318,6.0355,6.0357,6.0664,6.0666,0,0,0,5.9773,5.9777,5.9836,5.9926,5.9968,5.9947,5.9963,6.0195,6.0217,6.0299,6.0321,6.0357,6.036,6.0663,6.0665,6.0713,0,0,0,5.9766,5.9756,5.983,5.9818,5.9964,6.0086,5.9978,6.0201,6.0227,6.032,6.0357,6.0363,6.0661,6.0664,6.0708,6.0739,0,0,0,5.9733,5.9752,5.9785,5.9816,5.9914,6.0083,6.0117,6.0208,6.0241,6.0353,6.0363,6.066,6.0663,6.0704,6.0732,6.0813,0,0,0,5.9689,5.9824,5.9785,5.9943,5.9912,6.0113,6.0116,6.0266,6.0368,6.0358,6.0662,6.0665,6.0703,6.0728,6.0808,6.0875,6.0902,0,0,5.9845,5.9842,5.9937,5.9909,6.0111,6.008,6.0287,6.0401,6.0431,6.0584,6.0592,6.071,6.0732,6.0812,6.106,6.1081,0,0,0,5.9977,6.0045,6.0104,6.0202,6.0294,6.0374,6.0459,6.05,6.0632,6.0507,6.0762,6.0776,6.0823,6.0856,6.0874,6.0915,6.068,6.0679,6.0679,6.0163,6.0197,6.0355,6.0416,6.0509,6.0595,6.0673,6.0742,6.0748,6.0807,6.0853,6.1,6.1038,6.1051,6.1093,6.0892,6.0892,6.0892,6.0893,6.0393,6.0493,6.0497,6.0652,6.0685,6.0813,6.0899,6.0899,6.1019,6.0969,6.1013,6.0953,6.1073,6.1111,6.0897,6.0896,6.0895,6.0895,6.0895,6.0517,6.0571,6.0621,6.0763,6.0868,6.0923,6.1039,6.1065,6.1089,6.1132,6.1181,6.118,6.118,6.1154,6.1154,6.1155,6.1155,6.1156,6.1156,6.0625,6.068,6.0778,6.0886,6.095,6.1037,6.1123,6.1185,6.126,6.1269,6.1269,6.1266,6.108,6.1032,6.1164,6.1163,6.1162,6.1161,6.116,6.0843,6.0798,6.0948,6.1013,6.1139,6.1239,6.1271,6.1395,6.1449,6.1505,6.1493,6.1352,6.1348,6.1335,6.1294,6.1487,6.1487,6.1487,6.1487,6.0946,6.0948,6.1106,6.1207,6.1308,6.1351,6.1514,6.158,6.164,6.1675,6.165,6.16,6.1584,6.159,6.1571,6.1534,6.1783,6.1783,6.1783,6.1081,6.1093,6.123,6.1292,6.1392,6.1475,6.1628,6.1739,6.1798,6.1796,6.1701,6.1689,6.1608,6.158,6.1575,6.1544,6.1477,0,0]}]]